Location: Helion Bumpstead
(52.0500°N, 0.4000°E)
Time: 22:34:20
(UTC+00:00)

Cosmos 1725 Rocket - Pass Details

Date: 19 February 2026
Orbit: 962 x 989 km, 82.9° (Epoch: 11 March)

Event Time Altitude Azimuth Distance (km) Brightness Sun altitude
Rises 04:05:39 0° 126° (SE) 3,640 7.5 -28.1°
Reaches altitude 10° 04:09:31 10° 102° (ESE) 2,702 7.1 -27.5°
Maximum altitude 04:12:23 14° 74° (ENE) 2,449 7.0 -27.1°
Drops below altitude 10° 04:15:14 10° 46° (NE) 2,716 7.1 -26.7°
Sets 04:19:08 0° 22° (NNE) 3,673 7.5 -26.1°
